Regional Weather Roundup
Issued by NWS Raleigh/Durham, NC

Home | Current Version | Previous Version | Text Only | Print | Product List | Glossary On
Versions: 1 2 3 4 5 6 7 8 9 10 11 12 13 14 15 16 17 18 19 20 21 22 23 24 25 26 27 28 29 30 31 32 33 34 35 36 37 38 39 40 41 42 43 44 45 46 47 48 49 50
000
ASUS42 KRAH 220010
RWRRAH
NORTH CAROLINA WEATHER ROUNDUP
NATIONAL WEATHER SERVICE RALEIGH NC
700 PM EST FRI NOV 21 2014

NOTE: "FAIR" INDICATES FEW OR NO CLOUDS BELOW 12,000 FEET WITH NO
SIGNIFICANT WEATHER AND/OR OBSTRUCTIONS TO VISIBILITY.

NCZ001-053-055-056-065-067-220100-
WESTERN NORTH CAROLINA

CITY           SKY/WX    TMP DP  RH WIND       PRES   REMARKS
ASHEVILLE      CLEAR     41  10  28 CALM      30.42R
JEFFERSON      CLEAR     36  -5  17 CALM      30.39R
MORGANTON      CLEAR     41  12  30 E5        30.47R
HICKORY        CLEAR     44  12  27 E5        30.44R
RUTHERFORDTON  CLEAR     47  19  32 CALM      30.43R
MOUNT AIRY     CLEAR     34  12  39 NE5       30.47R WCI  30
BOONE          CLEAR     28   9  45 CALM      30.41R
$$

NCZ021-022-025-041-071-084-088-220100-
CENTRAL NORTH CAROLINA

CITY           SKY/WX    TMP DP  RH WIND       PRES   REMARKS
CHARLOTTE      CLEAR     48  10  21 E6        30.45R
GREENSBORO     PTCLDY    38  13  35 E3        30.46R
WINSTON-SALEM  CLEAR     38  10  31 CALM      30.47R
RALEIGH-DURHAM CLEAR     34  17  50 E6        30.51R WCI  29
FORT BRAGG     CLEAR     41  10  28 NE6       30.50R
FAYETTEVILLE   CLEAR     40  12  32 NE7       30.49R
BURLINGTON     CLEAR     33  13  43 CALM      30.49R
LAURINBURG     CLEAR     39  15  37 NE8       30.49R WCI  33
$$

NCZ011-015-027-028-043-044-047-080-103-220100-
NORTHEASTERN NORTH CAROLINA

CITY           SKY/WX    TMP DP  RH WIND       PRES   REMARKS
ROCKY MT-WILSO CLEAR     31  17  56 CALM      30.53R
GREENVILLE     CLEAR     32  19  59 CALM      30.53R
WASHINGTON     CLEAR     35  18  50 N3        30.53R
ELIZABETH CITY CLEAR     38  16  40 N6        30.54R WCI  33
MANTEO         CLEAR     38  19  44 N9        30.52R WCI  32
CAPE HATTERAS  CLEAR     40  21  46 N7G16     30.52R
$$

NCZ078-087-090-091-093-098-101-220100-
SOUTHEASTERN NORTH CAROLINA

CITY           SKY/WX    TMP DP  RH WIND       PRES   REMARKS
LUMBERTON      CLEAR     45  13  27 NE6       30.48R
GOLDSBORO      CLEAR     38  14  36 NE2       30.51R
KINSTON        CLEAR     32  18  55 N3        30.53R
KENANSVILLE    CLEAR     35  15  44 CALM      30.52R
NEW BERN       CLEAR     41  18  39 N8        30.52R
CHERRY POINT   CLEAR     42  18  37 NE8       30.52R
BEAUFORT       CLEAR     40  23  50 NE7       30.51R
JACKSONVILLE   CLEAR     40  16  37 N7        30.51R
WILMINGTON     CLEAR     40  22  48 NE7       30.49R
$$




USA.gov is the U.S. government's official web portal to all federal, state and local government web resources and services.